Powrót do katalogu

REX 2

AktywnyNaukaPO
NORAD 23814·PAYLOAD·🇺🇸 United States

Wystrzelony Mar 9, 1996 z Vandenberg Space Force Base

Loading…

Następne Przeloty (najbliższe 24 godziny)

TLE

ŚwieżeSource: Space-Track

Epoka: Sep 14, 2026, 04:53 UTC

1 23814U 96014A   26257.20376454  .00000118  00000-0  45089-4 0  9991
2 23814  90.0142 341.3423 0020976 204.2140 155.8070 14.25380114585871

Śledź REX 2 w czasie rzeczywistym z AllMySat

Download on the App Store